Location: Ar Ranvel
(48.3000°N, 4.8833°W)
Time: 16:21:31
(UTC+00:00)

BlueWalker 3 - Visible Passes

Search period start: 04 December 2022 00:00
Search period end: 14 December 2022 00:00
Orbit: 501 x 519 km, 53.2° (Epoch: 04 December)

Date Brightness Start Highest point End Pass type
(mag) Time Alt. Az. Time Alt. Az. Time Alt. Az.
04 Dec 2.7 16:58:57 10° WNW 17:02:42 40° N 17:06:24 10° ENE visible
04 Dec 2.4 18:38:03 10° WNW 18:41:33 48° N 18:41:33 48° N visible
05 Dec 2.2 18:19:39 10° WNW 18:23:29 51° NNE 18:24:00 47° NE visible
05 Dec 5.1 19:58:25 10° WNW 19:58:50 13° WNW 19:58:50 13° WNW visible
06 Dec 2.2 18:01:15 10° WNW 18:05:06 52° NNE 18:06:31 33° ENE visible
06 Dec 4.6 19:40:02 10° WNW 19:41:21 19° WNW 19:41:21 19° WNW visible
07 Dec 2.2 17:42:51 10° WNW 17:46:43 54° NNE 17:49:07 21° E visible
07 Dec 3.8 19:21:38 10° WNW 19:23:58 30° W 19:23:58 30° W visible
08 Dec 2.1 17:24:28 10° WNW 17:28:20 55° NNE 17:31:51 12° E visible
08 Dec 3.0 19:03:15 10° WNW 19:06:42 41° SW 19:06:42 41° SW visible
09 Dec 2.1 17:06:03 10° WNW 17:09:55 57° NNE 17:13:46 10° E visible
09 Dec 3.1 18:44:51 10° WNW 18:48:32 40° SW 18:49:38 32° S visible
10 Dec 3.3 18:26:27 10° WNW 18:30:06 38° SW 18:32:48 16° SSE visible
11 Dec 3.5 18:08:03 10° WNW 18:11:40 36° SW 18:15:14 10° SSE visible
12 Dec 3.7 17:49:39 10° WNW 17:53:13 34° SW 17:56:44 10° SSE visible
13 Dec 3.9 17:31:15 10° WNW 17:34:46 32° SW 17:38:15 10° SSE visible
